Location: ?????? ??????
(44.3742°N, 135.2221°E)
Time: 06:17:46
(UTC+00:00)

Cosmos 1892 - Pass Details

Date: 19 May 2025
Orbit: 369 x 378 km, 82.5° (Epoch: 15 June)

Event Time Altitude Azimuth Distance (km) Brightness Sun altitude
Rises 05:02:55 0° 342° (NNW) 2,279 5.9 54.0°
Reaches altitude 10° 05:05:02 10° 332° (NNW) 1,415 5.0 53.6°
Maximum altitude 05:07:48 31° 267° (W) 699 4.6 53.2°
Drops below altitude 10° 05:10:31 10° 203° (SSW) 1,392 5.5 52.8°
Enters shadow 05:40:46 -63° 172° (S) 11,774 9.2 47.9°
Exits shadow 06:15:41 -46° 8° (N) 9,675 8.7 42.0°
